DJ4CK-1 Weather Reports


time (UTC)temp
C
wind
direction
speed
KPH
gust
KPH
rain 1hr
cm
rain 24hr
cm
rain mn
cm
humidity
%
barometer
mb
20260505140603 22 0 0.0 0.0 0.00 0.00 0.00 37 1005.9
20260505140503 22 0 0.0 0.0 0.00 0.00 0.00 39 1005.9
20260505140403 22 0 0.0 0.0 0.00 0.00 0.00 38 1005.9
20260505140304 22 0 0.0 0.0 0.00 0.00 0.00 36 1005.9
20260505140203 22 246 0.0 1.6 0.00 0.00 0.00 36 1005.9
20260505130303 22 283 3.2 6.4 0.00 0.00 0.00 33 1006.5
20260505130203 22 294 3.2 6.4 0.00 0.00 0.00 34 1006.5
20260505130103 22 303 3.2 8.0 0.00 0.00 0.00 36 1006.5
20260505125003 22 255 1.6 6.4 0.00 0.00 0.00 31 1006.7
20260505124903 22 250 0.0 3.2 0.00 0.00 0.00 31 1006.7
20260505124803 22 254 1.6 3.2 0.00 0.00 0.00 33 1006.7
20260505124704 22 258 1.6 3.2 0.00 0.00 0.00 33 1006.7
20260505124603 22 261 1.6 3.2 0.00 0.00 0.00 32 1006.7
20260505124503 22 265 1.6 3.2 0.00 0.00 0.00 32 1006.7
20260505124403 22 273 1.6 3.2 0.00 0.00 0.00 32 1006.7
20260505124303 22 280 0.0 3.2 0.00 0.00 0.00 32 1006.7
20260505124203 22 290 1.6 8.0 0.00 0.00 0.00 31 1006.7
20260505124103 22 293 3.2 8.0 0.00 0.00 0.00 33 1006.7
20260505124004 22 296 4.8 11.3 0.00 0.00 0.00 33 1006.7
20260505123903 22 296 6.4 11.3 0.00 0.00 0.00 33 1006.7
20260505123803 22 294 8.0 12.9 0.00 0.00 0.00 34 1006.7
20260505123703 22 294 9.7 12.9 0.00 0.00 0.00 35 1006.7
20260505123604 22 292 9.7 12.9 0.00 0.00 0.00 33 1006.8
20260505123503 22 291 8.0 12.9 0.00 0.00 0.00 33 1006.8
20260505123403 22 292 8.0 12.9 0.00 0.00 0.00 33 1006.8
20260505123303 22 291 6.4 11.3 0.00 0.00 0.00 34 1006.7
20260505123203 22 291 6.4 11.3 0.00 0.00 0.00 33 1006.7
20260505123103 22 291 6.4 11.3 0.00 0.00 0.00 33 1006.7
20260505123003 22 291 6.4 11.3 0.00 0.00 0.00 32 1006.7
20260505122904 22 290 6.4 9.7 0.00 0.00 0.00 32 1006.7
20260505122803 22 290 6.4 9.7 0.00 0.00 0.00 32 1006.7
20260505122703 22 290 6.4 9.7 0.00 0.00 0.00 32 1006.7
20260505122603 22 295 8.0 16.1 0.00 0.00 0.00 31 1006.7
20260505122504 22 302 9.7 19.3 0.00 0.00 0.00 33 1006.7
20260505122403 22 304 11.3 20.9 0.00 0.00 0.00 33 1006.7
20260505122305 22 305 11.3 20.9 0.00 0.00 0.00 32 1006.7
20260505122204 22 306 11.3 20.9 0.00 0.00 0.00 32 1006.7
20260505122103 22 305 9.7 20.9 0.00 0.00 0.00 33 1006.7
20260505122003 22 305 8.0 17.7 0.00 0.00 0.00 32 1006.7
20260505121903 22 305 8.0 17.7 0.00 0.00 0.00 31 1006.8
20260505121804 22 304 8.0 17.7 0.00 0.00 0.00 31 1006.7
20260505121703 22 303 6.4 17.7 0.00 0.00 0.00 31 1006.8
20260505121603 22 300 4.8 9.7 0.00 0.00 0.00 32 1006.8
20260505121503 22 299 4.8 9.7 0.00 0.00 0.00 30 1006.8
20260505121403 22 301 4.8 11.3 0.00 0.00 0.00 30 1006.8
20260505121303 22 302 6.4 11.3 0.00 0.00 0.00 30 1006.8
20260505121203 22 305 6.4 11.3 0.00 0.00 0.00 30 1006.8
20260505121104 23 307 4.8 11.3 0.00 0.00 0.00 30 1006.8
20260505121003 23 306 4.8 11.3 0.00 0.00 0.00 30 1006.8
20260505120903 23 302 4.8 11.3 0.00 0.00 0.00 30 1006.8
20260505120803 23 298 4.8 9.7 0.00 0.00 0.00 31 1006.8
20260505120704 22 297 6.4 11.3 0.00 0.00 0.00 30 1006.9
20260505120603 23 297 6.4 11.3 0.00 0.00 0.00 29 1006.9
20260505120503 23 297 6.4 11.3 0.00 0.00 0.00 30 1006.9
20260505120403 23 296 8.0 14.5 0.00 0.00 0.00 31 1006.9
20260505120303 23 294 8.0 14.5 0.00 0.00 0.00 31 1006.9
20260505120203 23 295 9.7 14.5 0.00 0.00 0.00 31 1006.9
20260505120103 22 297 9.7 14.5 0.00 0.00 0.00 30 1006.9
20260505120004 23 300 9.7 14.5 0.00 0.00 0.00 30 1006.9
20260505115903 23 303 8.0 14.5 0.00 0.00 0.00 30 1006.9
20260505115803 23 305 8.0 12.9 0.00 0.00 0.00 30 1006.9
20260505115703 23 303 8.0 14.5 0.00 0.00 0.00 30 1006.9
20260505115603 23 301 8.0 14.5 0.00 0.00 0.00 32 1006.9
20260505115504 22 298 9.7 14.5 0.00 0.00 0.00 30 1006.9
20260505115403 22 297 9.7 14.5 0.00 0.00 0.00 29 1007.0
20260505115305 22 299 9.7 17.7 0.00 0.00 0.00 29 1007.0
20260505115203 23 301 9.7 17.7 0.00 0.00 0.00 30 1007.0
20260505115103 23 304 9.7 17.7 0.00 0.00 0.00 29 1007.0
20260505115003 23 306 9.7 17.7 0.00 0.00 0.00 29 1007.0
20260505114903 23 306 9.7 17.7 0.00 0.00 0.00 29 1007.0
20260505114803 23 304 9.7 16.1 0.00 0.00 0.00 31 1007.0
20260505114703 23 302 8.0 14.5 0.00 0.00 0.00 29 1007.0
20260505114603 23 299 9.7 14.5 0.00 0.00 0.00 29 1007.0
20260505114503 23 297 8.0 14.5 0.00 0.00 0.00 29 1007.1
20260505114403 22 296 6.4 11.3 0.00 0.00 0.00 29 1007.0
20260505114303 23 295 6.4 11.3 0.00 0.00 0.00 29 1007.0
20260505114203 22 296 4.8 11.3 0.00 0.00 0.00 28 1007.1
20260505114103 23 299 4.8 11.3 0.00 0.00 0.00 28 1007.1
20260505114003 23 304 4.8 11.3 0.00 0.00 0.00 30 1007.1
20260505113903 23 309 4.8 11.3 0.00 0.00 0.00 31 1007.0
20260505113803 23 313 3.2 8.0 0.00 0.00 0.00 30 1007.1
20260505113703 23 316 3.2 8.0 0.00 0.00 0.00 31 1007.1
20260505113603 23 318 3.2 8.0 0.00 0.00 0.00 30 1007.1
20260505113503 23 317 4.8 8.0 0.00 0.00 0.00 30 1007.1
20260505113404 23 315 4.8 8.0 0.00 0.00 0.00 30 1007.1
20260505113303 22 309 3.2 6.4 0.00 0.00 0.00 30 1007.1
20260505113203 22 302 4.8 6.4 0.00 0.00 0.00 31 1007.1
20260505113103 22 295 4.8 8.0 0.00 0.00 0.00 30 1007.2
20260505113004 22 290 4.8 8.0 0.00 0.00 0.00 32 1007.2
20260505112903 22 283 4.8 8.0 0.00 0.00 0.00 32 1007.2
20260505112803 21 278 4.8 8.0 0.00 0.00 0.00 32 1007.2
20260505112704 21 270 3.2 8.0 0.00 0.00 0.00 32 1007.2
20260505112603 21 262 4.8 8.0 0.00 0.00 0.00 32 1007.2
20260505112503 21 253 4.8 8.0 0.00 0.00 0.00 32 1007.3
20260505112403 21 249 4.8 8.0 0.00 0.00 0.00 32 1007.3
20260505112305 22 245 4.8 8.0 0.00 0.00 0.00 31 1007.3
20260505112203 22 243 4.8 9.7 0.00 0.00 0.00 31 1007.3
20260505112103 22 243 3.2 9.7 0.00 0.00 0.00 32 1007.3
20260505112004 22 248 3.2 9.7 0.00 0.00 0.00 31 1007.3
20260505111903 22 254 3.2 9.7 0.00 0.00 0.00 31 1007.3
20260505111803 22 263 3.2 8.0 0.00 0.00 0.00 32 1007.3
20260505111703 22 269 3.2 8.0 0.00 0.00 0.00 31 1007.3
20260505111604 22 272 3.2 8.0 0.00 0.00 0.00 31 1007.3
20260505111503 22 272 4.8 12.9 0.00 0.00 0.00 32 1007.3
20260505111403 22 269 6.4 12.9 0.00 0.00 0.00 33 1007.3
20260505111303 22 265 6.4 12.9 0.00 0.00 0.00 34 1007.3
20260505111203 22 261 6.4 12.9 0.00 0.00 0.00 32 1007.3
20260505111103 22 255 6.4 11.3 0.00 0.00 0.00 33 1007.3
20260505111003 22 251 6.4 11.3 0.00 0.00 0.00 34 1007.3
20260505110904 22 247 4.8 9.7 0.00 0.00 0.00 35 1007.3
20260505110803 22 243 4.8 9.7 0.00 0.00 0.00 33 1007.4
20260505110703 22 244 6.4 17.7 0.00 0.00 0.00 32 1007.4
20260505110603 22 247 6.4 17.7 0.00 0.00 0.00 32 1007.4
20260505110504 22 251 8.0 17.7 0.00 0.00 0.00 33 1007.4
20260505110403 22 256 8.0 17.7 0.00 0.00 0.00 31 1007.4
20260505110303 23 261 8.0 12.9 0.00 0.00 0.00 32 1007.4
20260505110203 23 268 8.0 12.9 0.00 0.00 0.00 32 1007.4
20260505102203 21 292 6.4 11.3 0.00 0.00 0.00 38 1008.0
20260505102103 21 293 6.4 11.3 0.00 0.00 0.00 36 1008.0
20260505102004 21 292 8.0 12.9 0.00 0.00 0.00 36 1008.1
20260505101903 21 290 9.7 12.9 0.00 0.00 0.00 36 1008.0
20260505101803 21 288 8.0 12.9 0.00 0.00 0.00 37 1008.1
20260505101704 22 287 6.4 12.9 0.00 0.00 0.00 37 1008.1
20260505101604 22 284 3.2 12.9 0.00 0.00 0.00 37 1008.0
20260505101503 22 283 1.6 6.4 0.00 0.00 0.00 37 1008.0
20260505101403 21 284 1.6 6.4 0.00 0.00 0.00 38 1008.1
20260505101303 21 283 1.6 8.0 0.00 0.00 0.00 38 1008.1
20260505101204 21 287 3.2 8.0 0.00 0.00 0.00 37 1008.1
20260505101103 21 288 3.2 8.0 0.00 0.00 0.00 38 1008.1
20260505101003 21 288 3.2 8.0 0.00 0.00 0.00 37 1008.1
20260505100903 21 290 4.8 8.0 0.00 0.00 0.00 37 1008.1
20260505100803 22 290 3.2 8.0 0.00 0.00 0.00 38 1008.1
20260505100703 22 289 4.8 9.7 0.00 0.00 0.00 39 1008.1
20260505100603 21 288 6.4 12.9 0.00 0.00 0.00 37 1008.2
20260505100504 21 288 4.8 12.9 0.00 0.00 0.00 39 1008.2
20260505100403 21 288 6.4 12.9 0.00 0.00 0.00 38 1008.2
20260505100303 21 288 4.8 12.9 0.00 0.00 0.00 38 1008.2
20260505100203 21 292 3.2 11.3 0.00 0.00 0.00 39 1008.2
20260505100003 21 300 6.4 16.1 0.00 0.00 0.00 37 1008.3
20260505095903 21 300 6.4 16.1 0.00 0.00 0.00 36 1008.3
20260505095804 21 300 8.0 16.1 0.00 0.00 0.00 38 1008.3
20260505095703 21 300 6.4 16.1 0.00 0.00 0.00 37 1008.3
20260505095603 21 299 4.8 11.3 0.00 0.00 0.00 38 1008.3
20260505095504 21 294 6.4 11.3 0.00 0.00 0.00 38 1008.3
20260505095403 21 290 6.4 14.5 0.00 0.00 0.00 40 1008.3
20260505095305 21 286 8.0 14.5 0.00 0.00 0.00 37 1008.3
20260505095203 21 283 9.7 16.1 0.00 0.00 0.00 36 1008.3
20260505095103 21 278 9.7 16.1 0.00 0.00 0.00 36 1008.3
20260505095004 21 274 11.3 17.7 0.00 0.00 0.00 38 1008.3
20260505094903 21 270 9.7 17.7 0.00 0.00 0.00 37 1008.3
20260505094803 21 267 8.0 17.7 0.00 0.00 0.00 37 1008.3
20260505094703 21 266 6.4 17.7 0.00 0.00 0.00 38 1008.3
20260505094604 21 267 4.8 12.9 0.00 0.00 0.00 38 1008.3
20260505094503 21 270 6.4 11.3 0.00 0.00 0.00 37 1008.3
20260505094403 21 272 6.4 11.3 0.00 0.00 0.00 37 1008.3
20260505094303 21 275 4.8 11.3 0.00 0.00 0.00 38 1008.3
20260505094203 21 279 4.8 11.3 0.00 0.00 0.00 38 1008.3
20260505094103 21 280 4.8 9.7 0.00 0.00 0.00 38 1008.3
20260505094003 21 281 6.4 11.3 0.00 0.00 0.00 37 1008.3
20260505093904 21 284 8.0 12.9 0.00 0.00 0.00 34 1008.3
20260505093803 22 287 8.0 14.5 0.00 0.00 0.00 35 1008.4
20260505093703 21 291 9.7 14.5 0.00 0.00 0.00 36 1008.4
20260505093603 21 295 9.7 16.1 0.00 0.00 0.00 35 1008.3
20260505093504 22 297 9.7 16.1 0.00 0.00 0.00 35 1008.3
20260505093403 22 298 8.0 16.1 0.00 0.00 0.00 36 1008.3
20260505093303 22 300 6.4 16.1 0.00 0.00 0.00 38 1008.3
20260505093203 21 298 4.8 14.5 0.00 0.00 0.00 37 1008.3
20260505093103 21 293 4.8 9.7 0.00 0.00 0.00 38 1008.4
20260505093003 21 290 6.4 12.9 0.00 0.00 0.00 37 1008.4
20260505092903 20 288 9.7 14.5 0.00 0.00 0.00 37 1008.4
20260505092804 20 286 9.7 14.5 0.00 0.00 0.00 37 1008.4
20260505092703 21 285 9.7 14.5 0.00 0.00 0.00 37 1008.4
20260505092603 21 284 8.0 14.5 0.00 0.00 0.00 39 1008.4
20260505092503 21 283 6.4 14.5 0.00 0.00 0.00 40 1008.4
20260505092404 21 284 6.4 11.3 0.00 0.00 0.00 41 1008.4
20260505092305 21 283 6.4 11.3 0.00 0.00 0.00 41 1008.4
20260505092203 21 282 6.4 11.3 0.00 0.00 0.00 40 1008.4
20260505092103 21 281 6.4 11.3 0.00 0.00 0.00 41 1008.5
20260505092004 21 279 6.4 11.3 0.00 0.00 0.00 39 1008.5
20260505091903 21 277 6.4 9.7 0.00 0.00 0.00 40 1008.5
20260505091803 21 274 6.4 11.3 0.00 0.00 0.00 41 1008.5
20260505091703 21 270 6.4 11.3 0.00 0.00 0.00 42 1008.5
20260505091603 21 266 6.4 11.3 0.00 0.00 0.00 41 1008.5
20260505091503 21 263 6.4 11.3 0.00 0.00 0.00 40 1008.5
20260505091403 21 260 3.2 9.7 0.00 0.00 0.00 41 1008.5
20260505091304 21 257 3.2 9.7 0.00 0.00 0.00 41 1008.5
20260505091203 21 254 1.6 8.0 0.00 0.00 0.00 40 1008.5
20260505091103 21 260 1.6 6.4 0.00 0.00 0.00 41 1008.5
20260505091003 21 265 3.2 6.4 0.00 0.00 0.00 40 1008.5
20260505090903 21 268 3.2 6.4 0.00 0.00 0.00 40 1008.5
20260505090803 21 272 3.2 6.4 0.00 0.00 0.00 40 1008.5
20260505090703 21 276 1.6 6.4 0.00 0.00 0.00 40 1008.5
20260505090603 21 287 1.6 4.8 0.00 0.00 0.00 42 1008.5
20260505090503 21 290 1.6 6.4 0.00 0.00 0.00 42 1008.6
20260505090403 20 288 3.2 6.4 0.00 0.00 0.00 41 1008.6
20260505090303 20 285 3.2 6.4 0.00 0.00 0.00 41 1008.6
20260505090204 20 280 4.8 9.7 0.00 0.00 0.00 42 1008.6
20260505090003 20 268 6.4 9.7 0.00 0.00 0.00 43 1008.6
20260505085903 20 265 4.8 9.7 0.00 0.00 0.00 42 1008.6
20260505085803 20 260 3.2 8.0 0.00 0.00 0.00 42 1008.6
20260505085703 20 252 3.2 8.0 0.00 0.00 0.00 41 1008.6
20260505085603 20 242 3.2 6.4 0.00 0.00 0.00 41 1008.6
20260505085504 20 235 3.2 6.4 0.00 0.00 0.00 41 1008.6
20260505085403 21 231 3.2 6.4 0.00 0.00 0.00 41 1008.6
20260505085304 21 227 3.2 6.4 0.00 0.00 0.00 41 1008.6
20260505085204 21 226 3.2 6.4 0.00 0.00 0.00 43 1008.6
20260505085103 20 227 3.2 8.0 0.00 0.00 0.00 44 1008.6
20260505085004 20 227 4.8 9.7 0.00 0.00 0.00 44 1008.6
20260505084903 20 226 4.8 9.7 0.00 0.00 0.00 42 1008.6
20260505084803 20 224 4.8 9.7 0.00 0.00 0.00 42 1008.6
20260505084703 20 217 3.2 9.7 0.00 0.00 0.00 43 1008.6
20260505084603 20 211 3.2 6.4 0.00 0.00 0.00 43 1008.6
20260505084503 21 209 1.6 4.8 0.00 0.00 0.00 44 1008.6
20260505084403 20 201 3.2 4.8 0.00 0.00 0.00 45 1008.6
20260505084304 20 189 3.2 8.0 0.00 0.00 0.00 45 1008.6
20260505084203 20 183 3.2 8.0 0.00 0.00 0.00 46 1008.6
20260505084103 20 180 4.8 8.0 0.00 0.00 0.00 45 1008.6
20260505084003 20 174 3.2 8.0 0.00 0.00 0.00 45 1008.6
20260505083903 20 167 3.2 6.4 0.00 0.00 0.00 44 1008.6
20260505083803 20 163 1.6 6.4 0.00 0.00 0.00 44 1008.6
20260505083703 20 157 1.6 4.8 0.00 0.00 0.00 44 1008.6
20260505083603 20 151 1.6 3.2 0.00 0.00 0.00 43 1008.6
20260505083503 20 145 0.0 3.2 0.00 0.00 0.00 44 1008.6
20260505083403 20 151 0.0 3.2 0.00 0.00 0.00 43 1008.6
20260505083304 20 159 1.6 3.2 0.00 0.00 0.00 44 1008.7
20260505083203 20 167 1.6 3.2 0.00 0.00 0.00 44 1008.7
20260505083103 21 169 1.6 3.2 0.00 0.00 0.00 43 1008.7
20260505083003 21 175 1.6 3.2 0.00 0.00 0.00 42 1008.7
20260505082904 20 178 1.6 3.2 0.00 0.00 0.00 43 1008.7
20260505082803 20 184 0.0 1.6 0.00 0.00 0.00 44 1008.7
20260505082703 20 186 0.0 1.6 0.00 0.00 0.00 43 1008.7
20260505082603 20 0 0.0 0.0 0.00 0.00 0.00 44 1008.7
20260505082503 20 214 0.0 1.6 0.00 0.00 0.00 44 1008.7
20260505082403 20 218 0.0 3.2 0.00 0.00 0.00 44 1008.7
20260505082304 20 219 1.6 3.2 0.00 0.00 0.00 43 1008.7
20260505082204 20 220 1.6 3.2 0.00 0.00 0.00 43 1008.7
20260505082103 20 222 1.6 3.2 0.00 0.00 0.00 43 1008.8
20260505082003 20 225 1.6 3.2 0.00 0.00 0.00 43 1008.8
20260505081903 20 230 0.0 3.2 0.00 0.00 0.00 44 1008.8
20260505081804 20 235 0.0 3.2 0.00 0.00 0.00 45 1008.8
20260505081703 20 236 0.0 3.2 0.00 0.00 0.00 46 1008.8
20260505081603 20 236 0.0 3.2 0.00 0.00 0.00 46 1008.8
20260505081503 20 228 1.6 4.8 0.00 0.00 0.00 47 1008.8
20260505081403 19 224 1.6 4.8 0.00 0.00 0.00 46 1008.8
20260505081303 19 217 3.2 6.4 0.00 0.00 0.00 46 1008.9
20260505081203 19 212 3.2 6.4 0.00 0.00 0.00 46 1008.9
20260505081104 19 204 3.2 6.4 0.00 0.00 0.00 47 1008.9
20260505081003 19 198 4.8 6.4 0.00 0.00 0.00 47 1008.9
20260505080903 19 193 3.2 6.4 0.00 0.00 0.00 48 1008.9
20260505080803 19 190 3.2 6.4 0.00 0.00 0.00 49 1008.9
20260505080704 19 182 3.2 6.4 0.00 0.00 0.00 50 1008.9
20260505080603 19 170 3.2 6.4 0.00 0.00 0.00 49 1008.9
20260505080504 18 166 1.6 6.4 0.00 0.00 0.00 49 1008.9
20260505080403 18 162 3.2 6.4 0.00 0.00 0.00 48 1008.9
20260505080303 18 156 1.6 6.4 0.00 0.00 0.00 48 1008.9
20260505080203 19 143 1.6 4.8 0.00 0.00 0.00 48 1008.9
20260505080103 19 135 1.6 4.8 0.00 0.00 0.00 49 1008.9
20260505080003 19 128 3.2 4.8 0.00 0.00 0.00 49 1008.9
20260505075903 18 126 3.2 4.8 0.00 0.00 0.00 49 1008.9
20260505075804 18 119 3.2 4.8 0.00 0.00 0.00 50 1008.9
20260505075703 18 110 1.6 4.8 0.00 0.00 0.00 49 1008.9
20260505075603 18 102 1.6 4.8 0.00 0.00 0.00 50 1008.9
20260505075504 19 96 1.6 4.8 0.00 0.00 0.00 51 1009.0
20260505075404 19 92 1.6 4.8 0.00 0.00 0.00 49 1009.0
20260505075304 19 87 0.0 3.2 0.00 0.00 0.00 50 1009.0
20260505075203 19 87 0.0 3.2 0.00 0.00 0.00 50 1009.0
20260505075104 19 89 0.0 3.2 0.00 0.00 0.00 49 1009.0
20260505075004 19 90 0.0 1.6 0.00 0.00 0.00 50 1009.0
20260505074904 19 90 0.0 1.6 0.00 0.00 0.00 49 1009.0
20260505074803 19 0 0.0 0.0 0.00 0.00 0.00 50 1009.0
20260505074703 19 0 0.0 0.0 0.00 0.00 0.00 49 1009.0
20260505074604 19 0 0.0 0.0 0.00 0.00 0.00 50 1009.0
20260505074504 19 79 0.0 0.0 0.00 0.00 0.00 50 1009.0
20260505074403 19 79 0.0 0.0 0.00 0.00 0.00 50 1009.0
20260505074303 18 79 0.0 0.0 0.00 0.00 0.00 50 1009.0
20260505074203 18 74 0.0 1.6 0.00 0.00 0.00 52 1009.0
20260505074104 18 68 0.0 1.6 0.00 0.00 0.00 51 1009.0
20260505074003 18 69 0.0 1.6 0.00 0.00 0.00 51 1009.0
20260505073903 18 69 0.0 3.2 0.00 0.00 0.00 51 1009.0
20260505073803 18 71 1.6 4.8 0.00 0.00 0.00 52 1009.0
20260505073703 18 75 1.6 4.8 0.00 0.00 0.00 51 1009.0
20260505073603 18 76 3.2 4.8 0.00 0.00 0.00 52 1009.0
20260505073503 18 79 1.6 4.8 0.00 0.00 0.00 51 1009.0
20260505073403 17 83 1.6 4.8 0.00 0.00 0.00 51 1009.0
20260505073303 18 90 0.0 3.2 0.00 0.00 0.00 51 1009.0
20260505073203 18 92 0.0 3.2 0.00 0.00 0.00 51 1009.0
20260505073103 17 93 0.0 3.2 0.00 0.00 0.00 51 1009.0
20260505073004 18 90 0.0 3.2 0.00 0.00 0.00 51 1009.0
20260505072903 18 85 0.0 3.2 0.00 0.00 0.00 50 1009.0
20260505072803 18 81 0.0 3.2 0.00 0.00 0.00 51 1009.0
20260505072703 17 78 1.6 3.2 0.00 0.00 0.00 52 1009.0
20260505072604 18 78 1.6 3.2 0.00 0.00 0.00 52 1009.0
20260505072503 18 79 1.6 3.2 0.00 0.00 0.00 52 1009.0
20260505072403 18 80 1.6 3.2 0.00 0.00 0.00 50 1009.2
20260505072305 18 79 1.6 3.2 0.00 0.00 0.00 51 1009.2
20260505072204 18 76 1.6 4.8 0.00 0.00 0.00 50 1009.2
20260505072103 18 74 1.6 6.4 0.00 0.00 0.00 51 1009.2
20260505072003 17 74 1.6 6.4 0.00 0.00 0.00 52 1009.2
20260505071903 17 73 3.2 6.4 0.00 0.00 0.00 51 1009.2
20260505071804 17 74 3.2 6.4 0.00 0.00 0.00 51 1009.2
20260505071703 17 76 3.2 6.4 0.00 0.00 0.00 51 1009.2
20260505071603 17 78 3.2 6.4 0.00 0.00 0.00 52 1009.2
20260505071503 17 81 1.6 4.8 0.00 0.00 0.00 51 1009.2
20260505071403 17 84 1.6 4.8 0.00 0.00 0.00 50 1009.2
20260505071303 18 88 0.0 3.2 0.00 0.00 0.00 49 1009.2
20260505071203 18 88 0.0 1.6 0.00 0.00 0.00 50 1009.2
20260505071104 18 87 0.0 1.6 0.00 0.00 0.00 50 1009.2
20260505071003 17 0 0.0 1.6 0.00 0.00 0.00 49 1009.2
20260505070903 17 86 0.0 1.6 0.00 0.00 0.00 48 1009.2
20260505070803 17 86 0.0 1.6 0.00 0.00 0.00 49 1009.3
20260505070703 17 86 0.0 1.6 0.00 0.00 0.00 49 1009.3
20260505070603 17 82 0.0 1.6 0.00 0.00 0.00 50 1009.3
20260505070503 18 80 0.0 1.6 0.00 0.00 0.00 50 1009.3
20260505070404 18 77 0.0 1.6 0.00 0.00 0.00 50 1009.3
20260505070303 17 76 0.0 1.6 0.00 0.00 0.00 50 1009.3
20260505070203 17 74 0.0 0.0 0.00 0.00 0.00 51 1009.3
20260505070103 17 74 0.0 0.0 0.00 0.00 0.00 50 1009.3
20260505070003 17 73 0.0 0.0 0.00 0.00 0.00 51 1009.4
20260505065903 17 0 0.0 0.0 0.00 0.00 0.00 52 1009.4
20260505065803 17 0 0.0 0.0 0.00 0.00 0.00 52 1009.4
20260505065704 17 0 0.0 0.0 0.00 0.00 0.00 53 1009.4
20260505065603 17 0 0.0 0.0 0.00 0.00 0.00 53 1009.4
20260505065503 17 0 0.0 1.6 0.00 0.00 0.00 53 1009.4
20260505065403 17 96 0.0 1.6 0.00 0.00 0.00 53 1009.4
20260505065304 17 99 0.0 1.6 0.00 0.00 0.00 55 1009.4
20260505065203 17 99 0.0 1.6 0.00 0.00 0.00 54 1009.4
20260505065103 17 101 0.0 1.6 0.00 0.00 0.00 54 1009.4
20260505065004 17 106 0.0 3.2 0.00 0.00 0.00 55 1009.4
20260505064903 17 108 0.0 3.2 0.00 0.00 0.00 54 1009.4
20260505064803 17 111 1.6 3.2 0.00 0.00 0.00 54 1009.4
20260505064703 17 116 1.6 3.2 0.00 0.00 0.00 54 1009.4
20260505064604 17 125 1.6 3.2 0.00 0.00 0.00 55 1009.4
20260505064503 17 129 1.6 3.2 0.00 0.00 0.00 56 1009.5
20260505064403 16 133 1.6 3.2 0.00 0.00 0.00 57 1009.5
20260505064303 16 135 1.6 3.2 0.00 0.00 0.00 58 1009.5
20260505064204 16 138 0.0 3.2 0.00 0.00 0.00 59 1009.5
20260505064103 16 147 0.0 1.6 0.00 0.00 0.00 59 1009.5
20260505064003 16 157 0.0 1.6 0.00 0.00 0.00 62 1009.5
20260505063903 15 155 1.6 4.8 0.00 0.00 0.00 62 1009.5
20260505063804 15 155 1.6 4.8 0.00 0.00 0.00 62 1009.5
20260505063703 16 155 1.6 4.8 0.00 0.00 0.00 60 1009.5
20260505063603 16 154 1.6 4.8 0.00 0.00 0.00 60 1009.5
20260505063503 16 155 0.0 3.2 0.00 0.00 0.00 59 1009.5
20260505063403 16 158 0.0 1.6 0.00 0.00 0.00 60 1009.5
20260505063303 16 160 0.0 1.6 0.00 0.00 0.00 61 1009.5
20260505063203 16 163 0.0 1.6 0.00 0.00 0.00 61 1009.5
20260505063104 16 166 0.0 1.6 0.00 0.00 0.00 60 1009.5
20260505063004 16 173 0.0 1.6 0.00 0.00 0.00 60 1009.5
20260505062903 16 183 0.0 3.2 0.00 0.00 0.00 61 1009.5
20260505062803 16 188 1.6 3.2 0.00 0.00 0.00 62 1009.5
20260505062703 15 194 1.6 3.2 0.00 0.00 0.00 61 1009.5
20260505062603 15 195 1.6 3.2 0.00 0.00 0.00 61 1009.5
20260505062503 16 200 0.0 3.2 0.00 0.00 0.00 59 1009.5
20260505062403 15 202 0.0 3.2 0.00 0.00 0.00 61 1009.4
20260505062304 15 0 0.0 0.0 0.00 0.00 0.00 61 1009.4
20260505062203 15 0 0.0 0.0 0.00 0.00 0.00 62 1009.4
20260505062103 15 0 0.0 0.0 0.00 0.00 0.00 64 1009.4
20260505062003 14 0 0.0 0.0 0.00 0.00 0.00 65 1009.5
20260505061904 14 175 0.0 1.6 0.00 0.00 0.00 66 1009.5
20260505061803 14 173 0.0 1.6 0.00 0.00 0.00 67 1009.5
20260505061703 13 173 0.0 1.6 0.00 0.00 0.00 66 1009.5
20260505061603 14 163 0.0 1.6 0.00 0.00 0.00 66 1009.5
20260505061503 14 155 0.0 1.6 0.00 0.00 0.00 66 1009.5
20260505061403 14 149 0.0 1.6 0.00 0.00 0.00 66 1009.5
20260505061303 14 144 0.0 1.6 0.00 0.00 0.00 66 1009.5
20260505061204 14 130 0.0 3.2 0.00 0.00 0.00 65 1009.5
20260505061103 14 124 1.6 3.2 0.00 0.00 0.00 65 1009.5
20260505061003 14 120 1.6 3.2 0.00 0.00 0.00 65 1009.5
20260505060903 14 115 1.6 3.2 0.00 0.00 0.00 64 1009.6
20260505060803 14 110 1.6 3.2 0.00 0.00 0.00 65 1009.6
20260505060703 14 102 1.6 3.2 0.00 0.00 0.00 64 1009.6
20260505060603 15 98 1.6 3.2 0.00 0.00 0.00 64 1009.6
20260505060504 15 94 0.0 3.2 0.00 0.00 0.00 64 1009.6
20260505060403 15 92 0.0 1.6 0.00 0.00 0.00 63 1009.6
20260505060303 15 0 0.0 1.6 0.00 0.00 0.00 60 1009.6
20260505060203 16 0 0.0 0.0 0.00 0.00 0.00 60 1009.6
20260505060103 16 0 0.0 0.0 0.00 0.00 0.00 59 1009.6
20260505060003 16 0 0.0 0.0 0.00 0.00 0.00 55 1009.5
20260505055903 16 0 0.0 0.0 0.00 0.00 0.00 54 1009.5
20260505055803 16 0 0.0 0.0 0.00 0.00 0.00 55 1009.5
20260505055704 16 58 0.0 0.0 0.00 0.00 0.00 55 1009.5
20260505055603 16 63 0.0 1.6 0.00 0.00 0.00 55 1009.5
20260505055503 15 68 0.0 1.6 0.00 0.00 0.00 55 1009.5
20260505055403 15 69 0.0 3.2 0.00 0.00 0.00 56 1009.5
20260505055304 15 73 1.6 3.2 0.00 0.00 0.00 57 1009.5
20260505055203 15 75 1.6 3.2 0.00 0.00 0.00 57 1009.5
20260505055103 15 77 1.6 3.2 0.00 0.00 0.00 58 1009.5
20260505055003 15 79 0.0 3.2 0.00 0.00 0.00 59 1009.5
20260505054903 15 79 0.0 3.2 0.00 0.00 0.00 59 1009.5
20260505054803 15 82 0.0 0.0 0.00 0.00 0.00 60 1009.5
20260505054703 15 0 0.0 0.0 0.00 0.00 0.00 61 1009.4
20260505054603 15 0 0.0 0.0 0.00 0.00 0.00 62 1009.4
20260505054503 15 84 0.0 1.6 0.00 0.00 0.00 62 1009.4
20260505054403 14 85 0.0 1.6 0.00 0.00 0.00 61 1009.4
20260505054303 14 85 0.0 1.6 0.00 0.00 0.00 61 1009.4
20260505054203 15 85 0.0 1.6 0.00 0.00 0.00 61 1009.4
20260505054103 14 85 0.0 1.6 0.00 0.00 0.00 61 1009.4
20260505054003 14 0 0.0 0.0 0.00 0.00 0.00 61 1009.4
20260505053904 14 0 0.0 0.0 0.00 0.00 0.00 62 1009.4
20260505053803 14 0 0.0 0.0 0.00 0.00 0.00 62 1009.4
20260505053703 14 0 0.0 0.0 0.00 0.00 0.00 61 1009.4
20260505053603 14 0 0.0 0.0 0.00 0.00 0.00 61 1009.4
20260505053503 14 0 0.0 0.0 0.00 0.00 0.00 61 1009.4
20260505053403 15 0 0.0 0.0 0.00 0.00 0.00 61 1009.5
20260505053303 15 0 0.0 0.0 0.00 0.00 0.00 61 1009.5
20260505053204 15 0 0.0 0.0 0.00 0.00 0.00 61 1009.5
20260505053103 15 0 0.0 0.0 0.00 0.00 0.00 59 1009.5
20260505053003 16 0 0.0 0.0 0.00 0.00 0.00 57 1009.5
20260505052903 16 0 0.0 0.0 0.00 0.00 0.00 58 1009.5
20260505052804 16 0 0.0 0.0 0.00 0.00 0.00 58 1009.5
20260505052703 16 0 0.0 0.0 0.00 0.00 0.00 58 1009.5
20260505052603 16 0 0.0 0.0 0.00 0.00 0.00 57 1009.5
20260505052503 15 0 0.0 0.0 0.00 0.00 0.00 57 1009.5
20260505052404 15 0 0.0 0.0 0.00 0.00 0.00 57 1009.5
20260505052304 15 0 0.0 0.0 0.00 0.00 0.00 58 1009.5
20260505052203 15 0 0.0 0.0 0.00 0.00 0.00 60 1009.5
20260505052103 15 0 0.0 0.0 0.00 0.00 0.00 60 1009.5
20260505052004 15 0 0.0 0.0 0.00 0.00 0.00 59 1009.5
20260505051904 15 0 0.0 0.0 0.00 0.00 0.00 60 1009.5
20260505051803 15 0 0.0 0.0 0.00 0.00 0.00 60 1009.5
20260505051703 15 0 0.0 0.0 0.00 0.00 0.00 60 1009.5
20260505051603 15 0 0.0 0.0 0.00 0.00 0.00 61 1009.4
20260505051504 15 0 0.0 0.0 0.00 0.00 0.00 61 1009.4
20260505051403 15 0 0.0 0.0 0.00 0.00 0.00 61 1009.4
20260505051303 14 0 0.0 0.0 0.00 0.00 0.00 62 1009.4
20260505051203 14 0 0.0 0.0 0.00 0.00 0.00 62 1009.4
20260505051104 14 0 0.0 0.0 0.00 0.00 0.00 62 1009.4
20260505051003 14 0 0.0 0.0 0.00 0.00 0.00 62 1009.4
20260505050903 14 0 0.0 0.0 0.00 0.00 0.00 62 1009.4
20260505050803 15 0 0.0 0.0 0.00 0.00 0.00 61 1009.4
20260505050704 15 0 0.0 0.0 0.00 0.00 0.00 59 1009.4
20260505050603 15 0 0.0 0.0 0.00 0.00 0.00 60 1009.4
20260505050503 15 0 0.0 0.0 0.00 0.00 0.00 59 1009.4
20260505050403 15 0 0.0 0.0 0.00 0.00 0.00 59 1009.4
20260505050303 14 0 0.0 0.0 0.00 0.00 0.00 60 1009.4
20260505050203 13 0 0.0 0.0 0.00 0.00 0.00 60 1009.5
20260505050103 13 0 0.0 0.0 0.00 0.00 0.00 60 1009.5
20260505041704 12 86 1.6 4.8 0.00 0.00 0.00 66 1009.5
20260505041603 12 88 1.6 4.8 0.00 0.00 0.00 66 1009.5
20260505041503 12 91 1.6 3.2 0.00 0.00 0.00 66 1009.5
20260505041403 12 89 1.6 4.8 0.00 0.00 0.00 67 1009.5
20260505041304 12 87 1.6 4.8 0.00 0.00 0.00 68 1009.5
20260505041203 12 84 1.6 4.8 0.00 0.00 0.00 68 1009.5
20260505041103 12 79 1.6 4.8 0.00 0.00 0.00 68 1009.5
20260505041003 12 68 1.6 6.4 0.00 0.00 0.00 67 1009.5
20260505040903 12 65 1.6 6.4 0.00 0.00 0.00 67 1009.5
20260505040803 12 62 3.2 6.4 0.00 0.00 0.00 67 1009.5
20260505040703 12 60 3.2 6.4 0.00 0.00 0.00 67 1009.5
20260505040603 12 58 3.2 4.8 0.00 0.00 0.00 67 1009.5
20260505040503 12 57 1.6 4.8 0.00 0.00 0.00 66 1009.5
20260505040403 12 56 1.6 4.8 0.00 0.00 0.00 65 1009.5
20260505040304 12 57 1.6 3.2 0.00 0.00 0.00 65 1009.6
20260505040203 12 58 1.6 3.2 0.00 0.00 0.00 65 1009.6
20260505040103 12 58 1.6 3.2 0.00 0.00 0.00 64 1009.6
20260505040004 12 59 1.6 3.2 0.00 0.00 0.00 64 1009.6
20260505035904 12 59 1.6 3.2 0.00 0.00 0.00 64 1009.6
20260505035803 12 56 1.6 4.8 0.00 0.00 0.00 64 1009.5
20260505035703 12 54 3.2 4.8 0.00 0.00 0.00 65 1009.5
20260505035603 12 54 3.2 6.4 0.00 0.00 0.00 65 1009.5
20260505035504 12 53 3.2 6.4 0.00 0.00 0.00 65 1009.5
20260505035403 12 52 3.2 6.4 0.00 0.00 0.00 65 1009.5
20260505035304 12 49 4.8 8.0 0.00 0.00 0.00 65 1009.5
20260505035204 12 45 4.8 8.0 0.00 0.00 0.00 66 1009.5
20260505035103 12 40 4.8 8.0 0.00 0.00 0.00 67 1009.5
20260505035003 11 35 3.2 8.0 0.00 0.00 0.00 68 1009.4
20260505034903 11 31 3.2 6.4 0.00 0.00 0.00 70 1009.4
20260505034803 11 25 1.6 4.8 0.00 0.00 0.00 71 1009.4
20260505034703 11 21 0.0 3.2 0.00 0.00 0.00 71 1009.5
20260505034603 11 18 0.0 1.6 0.00 0.00 0.00 70 1009.5
20260505034503 11 18 0.0 1.6 0.00 0.00 0.00 70 1009.5
20260505034403 11 19 0.0 0.0 0.00 0.00 0.00 70 1009.5
20260505034303 11 46 0.0 1.6 0.00 0.00 0.00 69 1009.5
20260505034203 11 48 0.0 1.6 0.00 0.00 0.00 69 1009.5
20260505034104 11 53 0.0 1.6 0.00 0.00 0.00 69 1009.5
20260505034003 11 57 1.6 4.8 0.00 0.00 0.00 69 1009.5
20260505033903 11 57 1.6 4.8 0.00 0.00 0.00 69 1009.4
20260505033803 11 56 3.2 4.8 0.00 0.00 0.00 69 1009.4
20260505033703 11 54 3.2 4.8 0.00 0.00 0.00 69 1009.4
20260505033603 11 52 3.2 4.8 0.00 0.00 0.00 69 1009.4
20260505033503 11 50 3.2 4.8 0.00 0.00 0.00 68 1009.4
20260505033403 11 48 3.2 4.8 0.00 0.00 0.00 68 1009.4
20260505033303 11 46 3.2 4.8 0.00 0.00 0.00 68 1009.4
20260505033203 11 41 3.2 4.8 0.00 0.00 0.00 69 1009.4
20260505033104 11 33 1.6 3.2 0.00 0.00 0.00 69 1009.4
20260505033003 12 23 1.6 3.2 0.00 0.00 0.00 68 1009.4
20260505032903 12 15 1.6 3.2 0.00 0.00 0.00 68 1009.5
20260505032803 12 10 1.6 3.2 0.00 0.00 0.00 68 1009.5
20260505032703 12 7 1.6 3.2 0.00 0.00 0.00 67 1009.5
20260505032603 12 4 1.6 3.2 0.00 0.00 0.00 67 1009.5
20260505032503 12 1 0.0 3.2 0.00 0.00 0.00 67 1009.6
20260505032403 12 0 0.0 0.0 0.00 0.00 0.00 67 1009.6
20260505032304 12 0 0.0 0.0 0.00 0.00 0.00 67 1009.6
20260505032203 12 0 0.0 0.0 0.00 0.00 0.00 66 1009.6
20260505032104 12 0 0.0 0.0 0.00 0.00 0.00 66 1009.6
20260505032003 12 0 0.0 0.0 0.00 0.00 0.00 66 1009.6
20260505031903 12 0 0.0 0.0 0.00 0.00 0.00 66 1009.6
20260505031803 12 0 0.0 0.0 0.00 0.00 0.00 67 1009.6
20260505031703 12 0 0.0 0.0 0.00 0.00 0.00 67 1009.6
20260505031603 12 0 0.0 0.0 0.00 0.00 0.00 67 1009.6
20260505031503 12 309 0.0 1.6 0.00 0.00 0.00 67 1009.6
20260505031404 12 314 0.0 1.6 0.00 0.00 0.00 67 1009.6
20260505031303 12 319 0.0 3.2 0.00 0.00 0.00 67 1009.6
20260505031203 12 322 1.6 3.2 0.00 0.00 0.00 66 1009.6
20260505031103 12 327 1.6 3.2 0.00 0.00 0.00 67 1009.6
20260505031003 12 331 1.6 3.2 0.00 0.00 0.00 67 1009.6
20260505030903 12 335 0.0 1.6 0.00 0.00 0.00 67 1009.6
20260505030803 12 340 0.0 1.6 0.00 0.00 0.00 66 1009.6
20260505030703 12 345 0.0 1.6 0.00 0.00 0.00 66 1009.6
20260505030603 12 0 0.0 1.6 0.00 0.00 0.00 66 1009.6
20260505030503 12 2 0.0 1.6 0.00 0.00 0.00 66 1009.6
20260505030404 12 3 0.0 1.6 0.00 0.00 0.00 66 1009.6
20260505030303 12 3 0.0 1.6 0.00 0.00 0.00 65 1009.6
20260505030203 12 5 0.0 1.6 0.00 0.00 0.00 64 1009.6
20260505030103 12 24 0.0 1.6 0.00 0.00 0.00 65 1009.6
20260505030004 12 35 0.0 1.6 0.00 0.00 0.00 64 1009.6
20260505025903 12 38 0.0 1.6 0.00 0.00 0.00 64 1009.6
20260505025803 12 41 0.0 1.6 0.00 0.00 0.00 65 1009.6
20260505025703 12 47 0.0 1.6 0.00 0.00 0.00 65 1009.6
20260505025604 12 51 0.0 1.6 0.00 0.00 0.00 65 1009.6
20260505025503 12 55 0.0 1.6 0.00 0.00 0.00 65 1009.6
20260505025403 12 59 0.0 1.6 0.00 0.00 0.00 65 1009.6
20260505025305 12 0 0.0 0.0 0.00 0.00 0.00 65 1009.6
20260505025203 12 0 0.0 0.0 0.00 0.00 0.00 65 1009.7
20260505025103 12 0 0.0 0.0 0.00 0.00 0.00 64 1009.7
20260505025004 12 108 0.0 1.6 0.00 0.00 0.00 64 1009.7
20260505024904 13 114 0.0 1.6 0.00 0.00 0.00 64 1009.7
20260505024803 13 117 0.0 1.6 0.00 0.00 0.00 63 1009.7
20260505024703 13 117 0.0 1.6 0.00 0.00 0.00 63 1009.6
20260505024603 13 118 0.0 1.6 0.00 0.00 0.00 62 1009.6
20260505024504 13 123 0.0 1.6 0.00 0.00 0.00 61 1009.6
20260505024403 13 0 0.0 0.0 0.00 0.00 0.00 61 1009.6
20260505024303 13 158 0.0 0.0 0.00 0.00 0.00 61 1009.6
20260505024203 13 158 0.0 0.0 0.00 0.00 0.00 60 1009.6
20260505024104 13 158 0.0 0.0 0.00 0.00 0.00 60 1009.7
20260505024003 13 173 0.0 1.6 0.00 0.00 0.00 60 1009.7
20260505023903 13 177 0.0 1.6 0.00 0.00 0.00 60 1009.7
20260505023803 13 176 1.6 1.6 0.00 0.00 0.00 61 1009.7
20260505023703 13 175 1.6 1.6 0.00 0.00 0.00 62 1009.7
20260505023603 13 171 1.6 1.6 0.00 0.00 0.00 63 1009.7
20260505023503 13 167 1.6 3.2 0.00 0.00 0.00 62 1009.7
20260505023404 13 161 1.6 3.2 0.00 0.00 0.00 62 1009.7
20260505023303 13 158 1.6 3.2 0.00 0.00 0.00 63 1009.7
20260505023203 13 153 1.6 3.2 0.00 0.00 0.00 63 1009.7
20260505023103 13 151 1.6 3.2 0.00 0.00 0.00 62 1009.7
20260505023004 13 153 0.0 3.2 0.00 0.00 0.00 61 1009.7
20260505022904 13 157 1.6 3.2 0.00 0.00 0.00 61 1009.8
20260505022803 13 162 1.6 3.2 0.00 0.00 0.00 60 1009.8
20260505022703 13 169 1.6 4.8 0.00 0.00 0.00 60 1009.8
20260505022604 13 174 1.6 6.4 0.00 0.00 0.00 60 1009.8
20260505022503 13 178 3.2 6.4 0.00 0.00 0.00 60 1009.8
20260505022403 13 180 3.2 6.4 0.00 0.00 0.00 59 1009.8
20260505022304 13 183 3.2 6.4 0.00 0.00 0.00 59 1009.8
20260505022204 13 185 3.2 6.4 0.00 0.00 0.00 59 1009.8
20260505022103 13 187 3.2 6.4 0.00 0.00 0.00 59 1009.8
20260505022004 13 188 3.2 6.4 0.00 0.00 0.00 59 1009.8
20260505021903 13 188 3.2 6.4 0.00 0.00 0.00 59 1009.8
20260505021803 13 188 3.2 6.4 0.00 0.00 0.00 59 1009.8
20260505021703 13 189 3.2 6.4 0.00 0.00 0.00 60 1009.8
20260505021604 13 192 3.2 4.8 0.00 0.00 0.00 60 1009.8
20260505021503 13 194 1.6 4.8 0.00 0.00 0.00 60 1009.8
20260505021403 13 202 1.6 3.2 0.00 0.00 0.00 61 1009.8
20260505021303 13 207 1.6 3.2 0.00 0.00 0.00 61 1009.9
20260505021204 13 218 1.6 4.8 0.00 0.00 0.00 62 1009.9
20260505021104 13 222 1.6 4.8 0.00 0.00 0.00 63 1009.9
20260505021004 13 228 1.6 4.8 0.00 0.00 0.00 63 1009.9
20260505020903 13 228 1.6 4.8 0.00 0.00 0.00 63 1009.9
20260505020803 13 227 1.6 3.2 0.00 0.00 0.00 64 1009.9
20260505020703 13 222 1.6 3.2 0.00 0.00 0.00 64 1009.9
20260505020604 13 214 0.0 3.2 0.00 0.00 0.00 64 1010.0
20260505020504 13 204 1.6 4.8 0.00 0.00 0.00 64 1010.0
20260505020403 13 199 1.6 4.8 0.00 0.00 0.00 63 1010.0
20260505020303 13 197 3.2 6.4 0.00 0.00 0.00 63 1010.0
20260505020203 13 197 3.2 6.4 0.00 0.00 0.00 62 1009.9
20260505020103 13 198 3.2 6.4 0.00 0.00 0.00 62 1009.9
20260505020004 13 200 3.2 6.4 0.00 0.00 0.00 63 1009.9
20260505015904 13 207 1.6 6.4 0.00 0.00 0.00 64 1009.9
20260505015804 13 209 1.6 3.2 0.00 0.00 0.00 64 1009.9
20260505015704 13 211 1.6 3.2 0.00 0.00 0.00 65 1009.9
20260505015604 13 212 1.6 3.2 0.00 0.00 0.00 64 1009.9
20260505015503 13 216 0.0 3.2 0.00 0.00 0.00 64 1009.9
20260505015404 13 211 0.0 1.6 0.00 0.00 0.00 63 1009.9
20260505015303 13 204 0.0 1.6 0.00 0.00 0.00 63 1009.9
20260505015203 13 197 1.6 1.6 0.00 0.00 0.00 64 1009.9
20260505015104 13 195 1.6 1.6 0.00 0.00 0.00 64 1009.9
20260505015004 13 190 1.6 1.6 0.00 0.00 0.00 64 1009.9
20260505014903 13 183 1.6 1.6 0.00 0.00 0.00 64 1009.9
20260505014804 13 176 1.6 1.6 0.00 0.00 0.00 63 1009.9
20260505014703 13 165 1.6 3.2 0.00 0.00 0.00 63 1009.9
20260505014603 13 157 1.6 3.2 0.00 0.00 0.00 61 1009.9
20260505014503 14 152 1.6 3.2 0.00 0.00 0.00 59 1009.9
20260505014403 14 149 3.2 3.2 0.00 0.00 0.00 60 1009.9
20260505014304 14 146 3.2 3.2 0.00 0.00 0.00 60 1009.9
20260505014203 14 143 3.2 4.8 0.00 0.00 0.00 59 1009.9
20260505014103 14 139 3.2 4.8 0.00 0.00 0.00 59 1009.9
20260505014003 14 136 3.2 4.8 0.00 0.00 0.00 59 1009.9
20260505013904 14 135 3.2 4.8 0.00 0.00 0.00 58 1009.9
20260505013803 14 132 1.6 3.2 0.00 0.00 0.00 58 1009.9
20260505013703 14 128 0.0 3.2 0.00 0.00 0.00 58 1009.9
20260505013603 14 0 0.0 0.0 0.00 0.00 0.00 58 1009.9
20260505013503 14 0 0.0 0.0 0.00 0.00 0.00 58 1009.9
20260505013404 14 102 0.0 0.0 0.00 0.00 0.00 59 1009.9
20260505013304 14 102 0.0 0.0 0.00 0.00 0.00 59 1010.0
20260505013204 14 102 0.0 0.0 0.00 0.00 0.00 59 1010.0
20260505013103 14 102 0.0 0.0 0.00 0.00 0.00 59 1010.0
20260505013003 14 89 0.0 1.6 0.00 0.00 0.00 60 1010.0
20260505012903 14 85 0.0 1.6 0.00 0.00 0.00 61 1010.0
20260505012803 14 84 0.0 1.6 0.00 0.00 0.00 60 1010.0
20260505012704 14 84 0.0 1.6 0.00 0.00 0.00 60 1010.1
20260505012604 13 82 0.0 1.6 0.00 0.00 0.00 60 1010.1
20260505012503 13 78 0.0 1.6 0.00 0.00 0.00 60 1010.1
20260505012403 13 0 0.0 0.0 0.00 0.00 0.00 61 1010.1
20260505012304 13 0 0.0 0.0 0.00 0.00 0.00 60 1010.1
20260505012203 13 0 0.0 0.0 0.00 0.00 0.00 60 1010.1
20260505012104 13 0 0.0 0.0 0.00 0.00 0.00 60 1010.1
20260505012004 13 0 0.0 0.0 0.00 0.00 0.00 60 1010.1
20260505011903 13 0 0.0 0.0 0.00 0.00 0.00 60 1010.1
20260505011803 13 0 0.0 0.0 0.00 0.00 0.00 60 1010.1
20260505011703 13 0 0.0 0.0 0.00 0.00 0.00 60 1010.1
20260505011603 13 0 0.0 0.0 0.00 0.00 0.00 60 1010.2
20260505011503 13 0 0.0 0.0 0.00 0.00 0.00 60 1010.2
20260505011404 13 0 0.0 0.0 0.00 0.00 0.00 60 1010.2
20260505011304 13 0 0.0 0.0 0.00 0.00 0.00 60 1010.2
20260505011204 14 115 0.0 1.6 0.00 0.00 0.00 60 1010.2
20260505011103 14 121 0.0 3.2 0.00 0.00 0.00 59 1010.2
20260505011003 14 126 1.6 3.2 0.00 0.00 0.00 59 1010.2
20260505010903 14 130 1.6 3.2 0.00 0.00 0.00 59 1010.2
20260505010803 14 132 1.6 3.2 0.00 0.00 0.00 59 1010.3
20260505010704 14 136 1.6 3.2 0.00 0.00 0.00 60 1010.3
20260505010604 14 146 1.6 3.2 0.00 0.00 0.00 59 1010.3
20260505010504 14 158 1.6 3.2 0.00 0.00 0.00 59 1010.3
20260505010403 14 163 1.6 3.2 0.00 0.00 0.00 59 1010.4
20260505010303 14 168 3.2 3.2 0.00 0.00 0.00 59 1010.4
20260505010203 14 176 3.2 3.2 0.00 0.00 0.00 60 1010.4
20260505010104 14 182 1.6 3.2 0.00 0.00 0.00 60 1010.4
20260505010003 14 188 1.6 3.2 0.00 0.00 0.00 60 1010.4
20260505005904 14 192 1.6 3.2 0.00 0.00 0.00 59 1010.4
20260505005804 14 196 1.6 3.2 0.00 0.00 0.00 59 1010.6
20260505005703 14 200 0.0 1.6 0.00 0.00 0.00 58 1010.6
20260505005603 14 0 0.0 1.6 0.00 0.00 0.00 59 1010.6
20260505005503 14 236 0.0 3.2 0.00 0.00 0.00 59 1010.6
20260505005403 14 239 0.0 3.2 0.00 0.00 0.00 59 1010.6
20260505005304 14 243 0.0 3.2 0.00 0.00 0.00 59 1010.6
20260505005203 14 251 1.6 4.8 0.00 0.00 0.00 59 1010.6
20260505005104 14 256 1.6 4.8 0.00 0.00 0.00 59 1010.6
20260505005004 14 261 1.6 4.8 0.00 0.00 0.00 59 1010.6
20260505004904 14 266 1.6 4.8 0.00 0.00 0.00 60 1010.6
20260505004804 14 275 1.6 3.2 0.00 0.00 0.00 59 1010.7
20260505004703 14 280 1.6 3.2 0.00 0.00 0.00 58 1010.7
20260505004604 14 285 1.6 3.2 0.00 0.00 0.00 58 1010.7
20260505004504 14 289 0.0 3.2 0.00 0.00 0.00 58 1010.7
20260505004403 15 300 0.0 1.6 0.00 0.00 0.00 57 1010.8
20260505004303 15 308 0.0 1.6 0.00 0.00 0.00 57 1010.8
20260505004203 15 312 0.0 1.6 0.00 0.00 0.00 55 1010.8
20260505004103 15 312 0.0 1.6 0.00 0.00 0.00 55 1010.8
20260505004003 15 327 0.0 1.6 0.00 0.00 0.00 55 1010.8
20260505003903 15 324 0.0 4.8 0.00 0.00 0.00 54 1010.8
20260505003803 15 321 1.6 4.8 0.00 0.00 0.00 54 1010.8
20260505003704 15 319 1.6 4.8 0.00 0.00 0.00 55 1010.8
20260505003604 15 316 3.2 4.8 0.00 0.00 0.00 54 1010.8
20260505003504 15 312 3.2 4.8 0.00 0.00 0.00 55 1010.9
20260505003404 15 304 3.2 4.8 0.00 0.00 0.00 55 1010.9
20260505003303 15 301 3.2 4.8 0.00 0.00 0.00 55 1010.9
20260505003204 15 298 3.2 4.8 0.00 0.00 0.00 55 1010.9
20260505003103 15 297 3.2 6.4 0.00 0.00 0.00 55 1010.9
20260505003003 15 296 3.2 6.4 0.00 0.00 0.00 55 1011.0
20260505002903 15 296 3.2 6.4 0.00 0.00 0.00 55 1011.0
20260505002803 15 297 4.8 6.4 0.00 0.00 0.00 55 1011.0
20260505002704 15 299 4.8 8.0 0.00 0.00 0.00 55 1011.0
20260505002604 14 302 4.8 8.0 0.00 0.00 0.00 56 1011.1
20260505002503 15 307 4.8 8.0 0.00 0.00 0.00 56 1011.1
20260505002403 15 310 4.8 8.0 0.00 0.00 0.00 55 1011.1
20260505002304 15 312 4.8 6.4 0.00 0.00 0.00 55 1011.0
20260505002203 15 310 4.8 6.4 0.00 0.00 0.00 54 1011.0
20260505002104 15 307 4.8 6.4 0.00 0.00 0.00 55 1011.0
20260505002003 15 303 4.8 8.0 0.00 0.00 0.00 55 1011.0
20260505001903 15 300 4.8 8.0 0.00 0.00 0.00 54 1011.0
20260505001803 15 297 4.8 8.0 0.00 0.00 0.00 54 1011.1
20260505001703 15 294 4.8 8.0 0.00 0.00 0.00 54 1011.1
20260505001603 15 292 4.8 8.0 0.00 0.00 0.00 55 1011.2
20260505001503 15 291 4.8 6.4 0.00 0.00 0.00 55 1011.2
20260505001403 15 288 4.8 9.7 0.00 0.00 0.00 55 1011.2
20260505001303 15 286 4.8 9.7 0.00 0.00 0.00 55 1011.2
20260505001203 15 282 4.8 9.7 0.00 0.00 0.00 55 1011.3
20260505001103 15 277 4.8 9.7 0.00 0.00 0.00 55 1011.3
20260505001003 15 271 3.2 6.4 0.00 0.00 0.00 55 1011.3
20260505000904 15 266 1.6 6.4 0.00 0.00 0.00 56 1011.3
20260505000803 15 259 1.6 6.4 0.00 0.00 0.00 55 1011.3
20260505000703 15 250 1.6 4.8 0.00 0.00 0.00 55 1011.3
20260505000603 15 246 1.6 4.8 0.00 0.00 0.00 55 1011.3
20260505000503 15 245 1.6 4.8 0.00 0.00 0.00 56 1011.3
20260505000405 15 244 1.6 4.8 0.00 0.00 0.00 56 1011.4
20260505000303 15 245 1.6 4.8 0.00 0.00 0.00 56 1011.4
20260505000204 15 246 3.2 6.4 0.00 0.00 0.00 56 1011.4
20260505000103 15 245 3.2 6.4 0.00 0.00 0.00 56 1011.4
20260504235904 15 240 3.2 8.0 0.00 0.00 0.00 56 1011.4
20260504235804 15 237 3.2 9.7 0.00 0.00 0.00 57 1011.4
20260504235703 15 236 4.8 9.7 0.00 0.00 0.00 56 1011.4
20260504235603 15 236 4.8 9.7 0.00 0.00 0.00 56 1011.4
20260504235503 15 236 4.8 9.7 0.00 0.00 0.00 57 1011.4
20260504235404 15 236 4.8 9.7 0.00 0.00 0.00 56 1011.4
20260504235304 15 235 4.8 9.7 0.00 0.00 0.00 57 1011.4
20260504235203 15 235 4.8 9.7 0.00 0.00 0.00 57 1011.4
20260504235103 15 236 6.4 11.3 0.00 0.00 0.00 57 1011.4
20260504235004 14 239 6.4 11.3 0.00 0.00 0.00 57 1011.4
20260504234903 15 241 6.4 11.3 0.00 0.00 0.00 57 1011.4
20260504234803 15 244 6.4 11.3 0.00 0.00 0.00 56 1011.4
20260504234703 15 248 6.4 11.3 0.00 0.00 0.00 56 1011.4
20260504234604 15 252 6.4 11.3 0.00 0.00 0.00 56 1011.4
20260504234503 14 258 6.4 11.3 0.00 0.00 0.00 57 1011.4
20260504234403 14 265 6.4 9.7 0.00 0.00 0.00 58 1011.3
20260504234303 14 270 4.8 9.7 0.00 0.00 0.00 58 1011.3
20260504234204 14 276 4.8 9.7 0.00 0.00 0.00 59 1011.3
20260504234103 14 286 4.8 9.7 0.00 0.00 0.00 60 1011.3
20260504234003 14 295 4.8 9.7 0.00 0.00 0.00 60 1011.3
20260504233903 13 301 4.8 9.7 0.00 0.00 0.00 60 1011.2
20260504233803 13 308 4.8 9.7 0.00 0.00 0.00 61 1011.2
20260504233703 13 314 4.8 8.0 0.00 0.00 0.00 61 1011.2
20260504233603 13 320 4.8 8.0 0.00 0.00 0.00 61 1011.2
20260504233503 13 326 3.2 8.0 0.00 0.00 0.00 62 1011.2
20260504233404 13 334 3.2 8.0 0.00 0.00 0.00 60 1011.2
20260504233303 14 343 3.2 4.8 0.00 0.00 0.00 59 1011.2
20260504233203 14 349 3.2 4.8 0.00 0.00 0.00 59 1011.2
20260504233103 14 354 1.6 4.8 0.00 0.00 0.00 59 1011.2
20260504233003 14 358 3.2 4.8 0.00 0.00 0.00 58 1011.2
20260504232904 14 1 3.2 4.8 0.00 0.00 0.00 58 1011.2
20260504232803 14 5 3.2 6.4 0.00 0.00 0.00 58 1011.2
20260504232703 14 9 3.2 6.4 0.00 0.00 0.00 58 1011.2
20260504232603 14 14 3.2 6.4 0.00 0.00 0.00 57 1011.2
20260504232504 15 18 3.2 6.4 0.00 0.00 0.00 57 1011.2
20260504232403 15 22 1.6 4.8 0.00 0.00 0.00 56 1011.2
20260504232304 15 27 0.0 3.2 0.00 0.00 0.00 55 1011.1
20260504232203 15 32 0.0 3.2 0.00 0.00 0.00 54 1011.1
20260504232104 15 0 0.0 0.0 0.00 0.00 0.00 54 1011.1
20260504232004 15 68 0.0 1.6 0.00 0.00 0.00 54 1011.1
20260504231904 15 73 0.0 1.6 0.00 0.00 0.00 54 1011.1
20260504231803 15 77 0.0 1.6 0.00 0.00 0.00 54 1011.1
20260504231703 15 83 1.6 3.2 0.00 0.00 0.00 54 1011.0
20260504231603 15 89 1.6 3.2 0.00 0.00 0.00 54 1011.0
20260504231504 15 94 1.6 3.2 0.00 0.00 0.00 54 1011.0
20260504231404 15 100 3.2 3.2 0.00 0.00 0.00 54 1011.0
20260504231304 15 106 3.2 3.2 0.00 0.00 0.00 55 1011.0
20260504231203 15 114 3.2 3.2 0.00 0.00 0.00 54 1011.0
20260504231103 15 121 3.2 3.2 0.00 0.00 0.00 54 1011.0
20260504231003 15 126 1.6 3.2 0.00 0.00 0.00 54 1011.0
20260504230903 15 131 1.6 3.2 0.00 0.00 0.00 54 1011.0
20260504230804 15 138 1.6 3.2 0.00 0.00 0.00 54 1011.0
20260504230703 15 153 1.6 3.2 0.00 0.00 0.00 54 1011.1
20260504230603 15 161 1.6 4.8 0.00 0.00 0.00 54 1011.1
20260504230503 15 167 3.2 4.8 0.00 0.00 0.00 54 1011.1
20260504230404 15 171 3.2 4.8 0.00 0.00 0.00 53 1011.1
20260504230303 15 176 3.2 4.8 0.00 0.00 0.00 54 1011.1
20260504230203 15 180 3.2 4.8 0.00 0.00 0.00 54 1011.1
20260504230103 15 184 1.6 4.8 0.00 0.00 0.00 53 1011.1
20260504230003 15 189 0.0 3.2 0.00 0.00 0.00 54 1011.1
20260504225903 15 193 0.0 1.6 0.00 0.00 0.00 54 1011.1
20260504225804 15 175 0.0 1.6 0.00 0.00 0.00 54 1011.1
20260504225703 15 174 0.0 1.6 0.00 0.00 0.00 54 1011.2
20260504225604 15 174 0.0 1.6 0.00 0.00 0.00 54 1011.2
20260504225504 15 174 0.0 1.6 0.00 0.00 0.00 54 1011.2
20260504225403 15 177 0.0 1.6 0.00 0.00 0.00 54 1011.2
20260504225304 15 181 0.0 1.6 0.00 0.00 0.00 54 1011.2
20260504225204 15 181 0.0 1.6 0.00 0.00 0.00 53 1011.2
20260504225103 15 188 0.0 3.2 0.00 0.00 0.00 53 1011.2
20260504225003 15 194 0.0 3.2 0.00 0.00 0.00 54 1011.2
20260504224903 15 193 1.6 3.2 0.00 0.00 0.00 53 1011.2
20260504224803 16 193 1.6 3.2 0.00 0.00 0.00 52 1011.2
20260504224703 15 189 1.6 3.2 0.00 0.00 0.00 52 1011.3
20260504224603 15 185 1.6 3.2 0.00 0.00 0.00 53 1011.3
20260504224504 15 183 1.6 3.2 0.00 0.00 0.00 53 1011.3
20260504224403 15 183 1.6 3.2 0.00 0.00 0.00 53 1011.3
20260504224303 15 184 1.6 4.8 0.00 0.00 0.00 54 1011.3
20260504224203 16 183 1.6 4.8 0.00 0.00 0.00 53 1011.3
20260504224104 16 181 1.6 4.8 0.00 0.00 0.00 53 1011.3
20260504224004 16 179 3.2 4.8 0.00 0.00 0.00 52 1011.3
20260504223903 16 176 3.2 4.8 0.00 0.00 0.00 51 1011.4
20260504223803 16 172 3.2 4.8 0.00 0.00 0.00 51 1011.4
20260504223704 16 172 3.2 4.8 0.00 0.00 0.00 51 1011.4
20260504223603 16 172 3.2 4.8 0.00 0.00 0.00 50 1011.4
20260504223503 16 173 3.2 4.8 0.00 0.00 0.00 51 1011.4
20260504223403 16 173 3.2 4.8 0.00 0.00 0.00 51 1011.4
20260504223303 16 173 3.2 4.8 0.00 0.00 0.00 51 1011.4
20260504223203 16 173 3.2 4.8 0.00 0.00 0.00 50 1011.4
20260504223103 16 175 3.2 4.8 0.00 0.00 0.00 50 1011.4
20260504223004 16 177 3.2 4.8 0.00 0.00 0.00 50 1011.4
20260504222904 16 180 3.2 4.8 0.00 0.00 0.00 50 1011.3
20260504222803 16 183 1.6 4.8 0.00 0.00 0.00 50 1011.3
20260504222703 16 188 1.6 3.2 0.00 0.00 0.00 50 1011.3
20260504222604 16 193 0.0 3.2 0.00 0.00 0.00 51 1011.3
20260504222504 16 0 0.0 0.0 0.00 0.00 0.00 51 1011.4
20260504222403 15 0 0.0 0.0 0.00 0.00 0.00 52 1011.4
20260504222304 15 0 0.0 0.0 0.00 0.00 0.00 53 1011.4
20260504222203 16 242 0.0 0.0 0.00 0.00 0.00 52 1011.4
20260504222103 16 247 0.0 1.6 0.00 0.00 0.00 51 1011.4
20260504222003 16 249 0.0 1.6 0.00 0.00 0.00 51 1011.4
20260504221903 15 249 0.0 1.6 0.00 0.00 0.00 52 1011.4
20260504221803 15 256 0.0 1.6 0.00 0.00 0.00 52 1011.4
20260504221703 16 264 0.0 1.6 0.00 0.00 0.00 51 1011.4
20260504221603 16 271 0.0 1.6 0.00 0.00 0.00 51 1011.4
20260504221503 16 271 0.0 1.6 0.00 0.00 0.00 50 1011.4
20260504221404 16 0 0.0 0.0 0.00 0.00 0.00 50 1011.4
20260504221303 16 0 0.0 0.0 0.00 0.00 0.00 51 1011.4
20260504221203 15 0 0.0 0.0 0.00 0.00 0.00 52 1011.4
20260504221103 -17 0.0 0.0 0.00 0.00 0.00
20260504220904 15 0 0.0 0.0 0.00 0.00 0.00 54 1011.4
20260504220803 15 0 0.0 0.0 0.00 0.00 0.00 54 1011.4
20260504220703 15 0 0.0 0.0 0.00 0.00 0.00 53 1011.4
20260504220603 15 0 0.0 0.0 0.00 0.00 0.00 52 1011.4
20260504220504 16 0 0.0 0.0 0.00 0.00 0.00 52 1011.5
20260504220403 16 0 0.0 0.0 0.00 0.00 0.00 52 1011.5
20260504220303 16 0 0.0 0.0 0.00 0.00 0.00 52 1011.5
20260504220203 16 0 0.0 0.0 0.00 0.00 0.00 52 1011.5
20260504220103 16 0 0.0 0.0 0.00 0.00 0.00 52 1011.5
20260504220004 16 227 0.0 1.6 0.00 0.00 0.00 52 1011.5
20260504215903 16 232 0.0 3.2 0.00 0.00 0.00 51 1011.5
20260504215803 16 237 1.6 3.2 0.00 0.00 0.00 52 1011.5
20260504215703 16 241 1.6 3.2 0.00 0.00 0.00 51 1011.5
20260504215603 16 245 3.2 3.2 0.00 0.00 0.00 50 1011.5
20260504215503 16 253 3.2 4.8 0.00 0.00 0.00 49 1011.5
20260504215403 16 260 3.2 4.8 0.00 0.00 0.00 49 1011.5
20260504215304 16 268 3.2 4.8 0.00 0.00 0.00 48 1011.5
20260504215203 16 272 3.2 4.8 0.00 0.00 0.00 48 1011.5
20260504215103 16 276 3.2 4.8 0.00 0.00 0.00 48 1011.6
20260504215003 16 280 1.6 4.8 0.00 0.00 0.00 49 1011.6
20260504214903 16 284 0.0 3.2 0.00 0.00 0.00 49 1011.6
20260504214803 16 290 0.0 1.6 0.00 0.00 0.00 49 1011.6
20260504214703 16 0 0.0 0.0 0.00 0.00 0.00 48 1011.6
20260504214603 16 0 0.0 0.0 0.00 0.00 0.00 47 1011.6
20260504214504 16 0 0.0 0.0 0.00 0.00 0.00 48 1011.6
20260504214403 16 0 0.0 0.0 0.00 0.00 0.00 49 1011.6
20260504214303 16 0 0.0 0.0 0.00 0.00 0.00 49 1011.6
20260504214203 16 0 0.0 0.0 0.00 0.00 0.00 50 1011.6
20260504214104 16 0 0.0 0.0 0.00 0.00 0.00 50 1011.6
20260504214003 16 336 0.0 1.6 0.00 0.00 0.00 50 1011.6
20260504213903 16 340 0.0 3.2 0.00 0.00 0.00 50 1011.6
20260504213804 16 340 0.0 3.2 0.00 0.00 0.00 51 1011.6
20260504213703 16 341 0.0 3.2 0.00 0.00 0.00 51 1011.6
20260504213603 16 341 0.0 3.2 0.00 0.00 0.00 50 1011.6
20260504213503 16 342 0.0 1.6 0.00 0.00 0.00 50 1011.7
20260504213403 16 346 0.0 0.0 0.00 0.00 0.00 51 1011.7
20260504213303 16 0 0.0 0.0 0.00 0.00 0.00 51 1011.7
20260504213203 16 0 0.0 0.0 0.00 0.00 0.00 50 1011.7
20260504213104 16 0 0.0 0.0 0.00 0.00 0.00 50 1011.7
20260504213003 16 0 0.0 0.0 0.00 0.00 0.00 51 1011.7
20260504212903 16 0 0.0 0.0 0.00 0.00 0.00 50 1011.7
20260504212803 16 0 0.0 0.0 0.00 0.00 0.00 50 1011.7
20260504212704 16 0 0.0 0.0 0.00 0.00 0.00 50 1011.7
20260504212603 16 0 0.0 0.0 0.00 0.00 0.00 50 1011.7
20260504212503 16 0 0.0 0.0 0.00 0.00 0.00 49 1011.7
20260504212403 16 0 0.0 0.0 0.00 0.00 0.00 48 1011.7
20260504212304 16 0 0.0 0.0 0.00 0.00 0.00 48 1011.7
20260504212203 16 0 0.0 0.0 0.00 0.00 0.00 49 1011.7
20260504212103 17 5 0.0 1.6 0.00 0.00 0.00 49 1011.7
20260504212003 17 9 0.0 1.6 0.00 0.00 0.00 49 1011.7
20260504211904 17 12 0.0 1.6 0.00 0.00 0.00 49 1011.7
20260504211803 17 12 0.0 1.6 0.00 0.00 0.00 49 1011.7
20260504211703 17 15 0.0 1.6 0.00 0.00 0.00 49 1011.6
20260504211603 17 19 0.0 1.6 0.00 0.00 0.00 49 1011.6
20260504211503 17 0 0.0 0.0 0.00 0.00 0.00 49 1011.6
20260504211403 17 0 0.0 0.0 0.00 0.00 0.00 49 1011.6
20260504211303 17 0 0.0 0.0 0.00 0.00 0.00 48 1011.6
20260504211203 17 0 0.0 0.0 0.00 0.00 0.00 47 1011.6
20260504211103 17 0 0.0 0.0 0.00 0.00 0.00 48 1011.6
20260504211003 17 45 0.0 1.6 0.00 0.00 0.00 47 1011.6
20260504210904 17 40 0.0 1.6 0.00 0.00 0.00 46 1011.7
20260504210803 17 36 0.0 1.6 0.00 0.00 0.00 46 1011.7
20260504210703 17 36 0.0 1.6 0.00 0.00 0.00 47 1011.7
20260504210603 17 33 0.0 1.6 0.00 0.00 0.00 47 1011.7
20260504210504 17 32 0.0 1.6 0.00 0.00 0.00 48 1011.7
20260504210403 17 33 0.0 1.6 0.00 0.00 0.00 48 1011.7
20260504210303 17 36 0.0 1.6 0.00 0.00 0.00 48 1011.7
20260504210204 17 43 0.0 3.2 0.00 0.00 0.00 48 1011.7
20260504210104 17 45 0.0 3.2 0.00 0.00 0.00 48 1011.7
20260504210004 17 45 0.0 3.2 0.00 0.00 0.00 48 1011.7
20260504205903 16 45 0.0 3.2 0.00 0.00 0.00 48 1011.7
20260504205803 17 0 0.0 0.0 0.00 0.00 0.00 48 1011.7
20260504205704 16 0 0.0 0.0 0.00 0.00 0.00 49 1011.7
20260504205604 17 0 0.0 0.0 0.00 0.00 0.00 49 1011.7
20260504205504 17 0 0.0 0.0 0.00 0.00 0.00 49 1011.8
20260504205403 17 0 0.0 0.0 0.00 0.00 0.00 49 1011.8
20260504205304 17 0 0.0 0.0 0.00 0.00 0.00 48 1011.8
20260504205204 17 0 0.0 0.0 0.00 0.00 0.00 48 1011.8
20260504205104 17 0 0.0 0.0 0.00 0.00 0.00 47 1011.8
20260504205004 17 0 0.0 0.0 0.00 0.00 0.00 48 1011.8
20260504204903 17 104 0.0 0.0 0.00 0.00 0.00 48 1011.8
20260504204803 17 104 0.0 0.0 0.00 0.00 0.00 48 1011.8
20260504204703 17 110 0.0 1.6 0.00 0.00 0.00 47 1011.8
20260504204604 17 116 0.0 3.2 0.00 0.00 0.00 46 1011.8
20260504204504 17 119 0.0 3.2 0.00 0.00 0.00 46 1011.8
20260504204403 17 119 0.0 3.2 0.00 0.00 0.00 47 1011.8
20260504204303 17 120 0.0 3.2 0.00 0.00 0.00 47 1011.8
20260504204203 17 126 0.0 3.2 0.00 0.00 0.00 47 1011.9
20260504204104 17 132 0.0 1.6 0.00 0.00 0.00 47 1011.9
20260504204003 17 132 0.0 1.6 0.00 0.00 0.00 47 1011.9
20260504203903 17 133 0.0 1.6 0.00 0.00 0.00 47 1011.9
20260504203803 17 0 0.0 0.0 0.00 0.00 0.00 47 1011.9
20260504203704 17 0 0.0 0.0 0.00 0.00 0.00 46 1011.9
20260504203603 17 0 0.0 0.0 0.00 0.00 0.00 48 1011.9
20260504203503 17 0 0.0 0.0 0.00 0.00 0.00 47 1011.9
20260504203403 17 0 0.0 0.0 0.00 0.00 0.00 46 1011.9
20260504203303 17 129 0.0 1.6 0.00 0.00 0.00 46 1011.9
20260504203203 17 129 0.0 1.6 0.00 0.00 0.00 46 1011.9
20260504203103 17 129 0.0 1.6 0.00 0.00 0.00 46 1011.9
20260504203004 17 127 0.0 3.2 0.00 0.00 0.00 45 1011.9
20260504202903 17 119 1.6 4.8 0.00 0.00 0.00 46 1011.9
20260504202803 17 115 1.6 4.8 0.00 0.00 0.00 46 1011.9
20260504202703 17 112 3.2 4.8 0.00 0.00 0.00 46 1011.8
20260504202603 17 109 3.2 4.8 0.00 0.00 0.00 47 1011.8
20260504202504 17 100 3.2 4.8 0.00 0.00 0.00 46 1011.8
20260504202403 17 92 3.2 4.8 0.00 0.00 0.00 46 1011.8
20260504202304 18 85 3.2 4.8 0.00 0.00 0.00 45 1011.8
20260504202203 18 83 1.6 4.8 0.00 0.00 0.00 43 1011.8
20260504202104 18 73 1.6 8.0 0.00 0.00 0.00 43 1011.8
20260504202003 18 66 3.2 14.5 0.00 0.00 0.00 42 1011.8
20260504201903 18 65 4.8 14.5 0.00 0.00 0.00 41 1011.8
20260504201804 19 66 4.8 14.5 0.00 0.00 0.00 39 1011.7
20260504201703 19 68 6.4 14.5 0.00 0.00 0.00 37 1011.7
20260504201604 19 69 4.8 14.5 0.00 0.00 0.00 38 1011.8
20260504201503 19 69 3.2 9.7 0.00 0.00 0.00 38 1011.8
20260504201403 19 67 3.2 9.7 0.00 0.00 0.00 38 1011.8
20260504201303 19 65 3.2 8.0 0.00 0.00 0.00 38 1011.8
20260504201204 19 64 3.2 9.7 0.00 0.00 0.00 38 1011.8
20260504201103 19 65 3.2 9.7 0.00 0.00 0.00 38 1011.8
20260504201003 19 66 4.8 9.7 0.00 0.00 0.00 38 1011.8
20260504200903 19 67 4.8 9.7 0.00 0.00 0.00 38 1011.8
20260504200803 19 68 4.8 9.7 0.00 0.00 0.00 38 1011.8
20260504200703 19 69 4.8 9.7 0.00 0.00 0.00 38 1011.7
20260504200603 19 70 3.2 9.7 0.00 0.00 0.00 39 1011.7
20260504200503 19 70 3.2 8.0 0.00 0.00 0.00 38 1011.7
20260504200404 19 70 3.2 8.0 0.00 0.00 0.00 38 1011.7
20260504200303 19 68 3.2 8.0 0.00 0.00 0.00 38 1011.7
20260504200203 19 65 3.2 9.7 0.00 0.00 0.00 38 1011.7
20260504200103 19 65 4.8 9.7 0.00 0.00 0.00 38 1011.7
20260504200004 19 67 6.4 9.7 0.00 0.00 0.00 38 1011.7
20260504195903 19 69 6.4 9.7 0.00 0.00 0.00 37 1011.7
20260504195803 19 72 6.4 9.7 0.00 0.00 0.00 38 1011.7
20260504195703 19 74 4.8 8.0 0.00 0.00 0.00 38 1011.8
20260504195604 19 73 3.2 6.4 0.00 0.00 0.00 38 1011.8
20260504195503 19 71 3.2 6.4 0.00 0.00 0.00 38 1011.8
20260504195403 19 68 3.2 12.9 0.00 0.00 0.00 39 1011.8
20260504195304 19 68 4.8 12.9 0.00 0.00 0.00 39 1011.7
20260504195203 19 68 4.8 12.9 0.00 0.00 0.00 39 1011.7
20260504195103 19 70 6.4 12.9 0.00 0.00 0.00 39 1011.7
20260504195003 19 70 4.8 12.9 0.00 0.00 0.00 39 1011.7
20260504194904 19 69 6.4 11.3 0.00 0.00 0.00 39 1011.7
20260504194803 18 70 4.8 11.3 0.00 0.00 0.00 39 1011.7
20260504194703 18 69 4.8 9.7 0.00 0.00 0.00 39 1011.7
20260504194603 18 69 3.2 9.7 0.00 0.00 0.00 39 1011.7
20260504194504 19 72 3.2 9.7 0.00 0.00 0.00 39 1011.7
20260504194403 19 73 3.2 9.7 0.00 0.00 0.00 39 1011.7
20260504194303 19 72 3.2 9.7 0.00 0.00 0.00 38 1011.7
20260504194203 19 71 4.8 9.7 0.00 0.00 0.00 38 1011.7
20260504194104 19 70 4.8 8.0 0.00 0.00 0.00 39 1011.7
20260504194003 19 68 4.8 8.0 0.00 0.00 0.00 39 1011.7
20260504193903 19 68 4.8 9.7 0.00 0.00 0.00 39 1011.7
20260504193803 19 69 4.8 9.7 0.00 0.00 0.00 38 1011.7
20260504193703 19 70 4.8 12.9 0.00 0.00 0.00 39 1011.7
20260504193603 19 71 6.4 16.1 0.00 0.00 0.00 38 1011.7
20260504193503 19 73 6.4 16.1 0.00 0.00 0.00 38 1011.8
20260504193403 19 74 6.4 16.1 0.00 0.00 0.00 38 1011.8
20260504193303 19 75 4.8 16.1 0.00 0.00 0.00 38 1011.8
20260504193203 18 78 4.8 14.5 0.00 0.00 0.00 39 1011.8
20260504193103 18 84 4.8 11.3 0.00 0.00 0.00 40 1011.8
20260504193004 18 91 4.8 17.7 0.00 0.00 0.00 41 1011.8
20260504192904 18 93 6.4 17.7 0.00 0.00 0.00 41 1011.8
20260504192803 18 92 6.4 17.7 0.00 0.00 0.00 40 1011.8
20260504192703 18 91 4.8 17.7 0.00 0.00 0.00 40 1011.8
20260504192604 18 87 3.2 9.7 0.00 0.00 0.00 41 1011.8
20260504192503 18 81 1.6 6.4 0.00 0.00 0.00 40 1011.9
20260504192403 19 75 1.6 4.8 0.00 0.00 0.00 39 1011.9
20260504192304 19 69 0.0 3.2 0.00 0.00 0.00 39 1011.9
20260504192204 19 63 1.6 3.2 0.00 0.00 0.00 38 1011.9
20260504192104 19 56 1.6 8.0 0.00 0.00 0.00 38 1012.1
20260504192003 19 55 3.2 8.0 0.00 0.00 0.00 37 1012.1
20260504191903 20 54 3.2 9.7 0.00 0.00 0.00 37 1012.1
20260504191804 20 52 4.8 9.7 0.00 0.00 0.00 36 1012.1
20260504191703 20 48 4.8 9.7 0.00 0.00 0.00 37 1012.1
20260504191603 20 44 6.4 11.3 0.00 0.00 0.00 37 1012.1
20260504191503 20 38 6.4 11.3 0.00 0.00 0.00 37 1012.1
20260504191403 20 33 6.4 11.3 0.00 0.00 0.00 36 1012.2
20260504191303 20 30 4.8 11.3 0.00 0.00 0.00 36 1012.2
20260504191203 20 27 3.2 9.7 0.00 0.00 0.00 36 1012.2
20260504191104 19 23 1.6 8.0 0.00 0.00 0.00 37 1012.2
20260504191003 19 16 1.6 3.2 0.00 0.00 0.00 38 1012.2
20260504190903 20 11 1.6 4.8 0.00 0.00 0.00 38 1012.2
20260504190803 20 12 1.6 6.4 0.00 0.00 0.00 37 1012.2
20260504190704 20 13 3.2 6.4 0.00 0.00 0.00 37 1012.2
20260504190603 20 16 3.2 6.4 0.00 0.00 0.00 37 1012.2
20260504190503 20 18 3.2 6.4 0.00 0.00 0.00 37 1012.2
20260504190403 20 18 3.2 6.4 0.00 0.00 0.00 37 1012.2
20260504190304 20 19 3.2 6.4 0.00 0.00 0.00 37 1012.2
20260504190203 20 19 3.2 6.4 0.00 0.00 0.00 37 1012.2
20260504190003 20 21 3.2 8.0 0.00 0.00 0.00 37 1012.2
20260504185904 20 20 3.2 8.0 0.00 0.00 0.00 36 1012.2
20260504185803 20 21 3.2 8.0 0.00 0.00 0.00 36 1012.2
20260504185703 20 25 3.2 6.4 0.00 0.00 0.00 37 1012.2
20260504185603 19 30 4.8 11.3 0.00 0.00 0.00 38 1012.2
20260504185504 20 35 4.8 11.3 0.00 0.00 0.00 38 1012.2
20260504185403 20 39 4.8 11.3 0.00 0.00 0.00 37 1012.1
20260504185304 20 42 4.8 11.3 0.00 0.00 0.00 37 1012.2
20260504185203 19 46 4.8 9.7 0.00 0.00 0.00 38 1012.2
20260504185104 19 47 4.8 8.0 0.00 0.00 0.00 39 1012.2
20260504185004 19 44 4.8 9.7 0.00 0.00 0.00 40 1012.2
20260504184903 20 41 6.4 9.7 0.00 0.00 0.00 38 1012.2
20260504184803 20 39 4.8 9.7 0.00 0.00 0.00 38 1012.1
20260504184703 20 36 4.8 9.7 0.00 0.00 0.00 38 1012.1
20260504184604 20 34 3.2 8.0 0.00 0.00 0.00 37 1012.1
20260504184503 20 33 3.2 6.4 0.00 0.00 0.00 38 1012.1
20260504184403 20 33 3.2 6.4 0.00 0.00 0.00 38 1012.1
20260504184303 20 35 3.2 4.8 0.00 0.00 0.00 37 1012.1
20260504184203 20 36 3.2 6.4 0.00 0.00 0.00 38 1012.1
20260504184103 20 34 3.2 6.4 0.00 0.00 0.00 39 1012.1
20260504184003 20 32 1.6 6.4 0.00 0.00 0.00 38 1012.1
20260504183903 20 28 1.6 6.4 0.00 0.00 0.00 38 1012.1
20260504183803 20 22 1.6 3.2 0.00 0.00 0.00 38 1012.1
20260504183703 20 16 1.6 3.2 0.00 0.00 0.00 38 1012.1
20260504183603 20 14 1.6 3.2 0.00 0.00 0.00 37 1012.1
20260504183504 20 11 1.6 3.2 0.00 0.00 0.00 37 1012.1
20260504183403 20 8 1.6 3.2 0.00 0.00 0.00 37 1012.1
20260504183303 20 5 1.6 6.4 0.00 0.00 0.00 36 1012.1
20260504183203 20 3 1.6 6.4 0.00 0.00 0.00 36 1012.1
20260504183104 20 2 1.6 6.4 0.00 0.00 0.00 37 1012.1
20260504183003 20 1 3.2 8.0 0.00 0.00 0.00 37 1012.1
20260504182903 20 360 3.2 8.0 0.00 0.00 0.00 38 1012.2
20260504182803 20 359 3.2 8.0 0.00 0.00 0.00 38 1012.2
20260504182704 20 359 1.6 8.0 0.00 0.00 0.00 37 1012.2
20260504182603 20 358 0.0 3.2 0.00 0.00 0.00 37 1012.2
20260504182504 20 352 0.0 3.2 0.00 0.00 0.00 37 1012.1
20260504182403 20 347 0.0 3.2 0.00 0.00 0.00 37 1012.1
20260504182304 20 343 1.6 4.8 0.00 0.00 0.00 37 1012.1
20260504182203 20 340 1.6 4.8 0.00 0.00 0.00 37 1012.1
20260504182104 20 338 1.6 4.8 0.00 0.00 0.00 37 1012.1
20260504182004 20 336 1.6 4.8 0.00 0.00 0.00 36 1012.1
20260504181904 20 333 1.6 4.8 0.00 0.00 0.00 37 1012.1
20260504181803 20 333 1.6 3.2 0.00 0.00 0.00 37 1012.1
20260504181703 20 334 1.6 6.4 0.00 0.00 0.00 37 1012.1
20260504181603 20 333 3.2 6.4 0.00 0.00 0.00 36 1012.1
20260504181503 20 333 3.2 6.4 0.00 0.00 0.00 37 1012.1
20260504181403 20 331 3.2 6.4 0.00 0.00 0.00 37 1012.1
20260504181303 20 328 1.6 4.8 0.00 0.00 0.00 37 1012.1
20260504181204 20 325 1.6 4.8 0.00 0.00 0.00 37 1012.1
20260504181103 20 323 1.6 4.8 0.00 0.00 0.00 37 1012.1
20260504181003 20 323 3.2 6.4 0.00 0.00 0.00 36 1012.1
20260504180903 20 322 1.6 6.4 0.00 0.00 0.00 37 1012.1
20260504180803 20 321 1.6 6.4 0.00 0.00 0.00 37 1012.1
20260504180703 20 318 1.6 6.4 0.00 0.00 0.00 38 1012.1
20260504180603 20 311 1.6 3.2 0.00 0.00 0.00 38 1012.1
20260504180504 20 309 1.6 4.8 0.00 0.00 0.00 38 1012.1
20260504180404 20 307 3.2 4.8 0.00 0.00 0.00 38 1012.1
20260504180303 20 305 3.2 4.8 0.00 0.00 0.00 38 1012.1
20260504180203 20 305 3.2 4.8 0.00 0.00 0.00 38 1012.1
20260504180104 20 304 3.2 6.4 0.00 0.00 0.00 38 1012.1
20260504180003 20 303 3.2 6.4 0.00 0.00 0.00 39 1012.1
20260504175903 20 302 3.2 6.4 0.00 0.00 0.00 38 1012.1
20260504175803 20 300 3.2 6.4 0.00 0.00 0.00 38 1012.1
20260504175704 20 297 3.2 6.4 0.00 0.00 0.00 38 1012.1
20260504175603 20 294 3.2 6.4 0.00 0.00 0.00 38 1012.1
20260504175503 20 292 3.2 4.8 0.00 0.00 0.00 38 1012.1
20260504175403 20 293 3.2 6.4 0.00 0.00 0.00 38 1012.1
20260504175304 20 296 3.2 6.4 0.00 0.00 0.00 38 1012.1
20260504175203 20 298 3.2 6.4 0.00 0.00 0.00 37 1012.1
20260504175103 20 300 3.2 6.4 0.00 0.00 0.00 37 1012.1
20260504175004 20 301 3.2 6.4 0.00 0.00 0.00 37 1012.1
20260504174903 20 302 3.2 6.4 0.00 0.00 0.00 37 1012.1
20260504174803 20 301 1.6 4.8 0.00 0.00 0.00 37 1012.1
20260504174703 20 299 1.6 4.8 0.00 0.00 0.00 37 1012.1
20260504174604 20 299 3.2 4.8 0.00 0.00 0.00 37 1012.1
20260504174503 20 299 3.2 4.8 0.00 0.00 0.00 38 1012.1
20260504174403 20 297 3.2 4.8 0.00 0.00 0.00 37 1011.9
20260504174303 20 296 3.2 4.8 0.00 0.00 0.00 37 1011.9
20260504174204 20 293 3.2 6.4 0.00 0.00 0.00 37 1011.9
20260504174103 20 291 3.2 6.4 0.00 0.00 0.00 38 1011.9
20260504174003 20 290 3.2 6.4 0.00 0.00 0.00 38 1011.9
20260504173903 20 289 3.2 6.4 0.00 0.00 0.00 39 1011.9
20260504173803 20 289 3.2 6.4 0.00 0.00 0.00 38 1011.9
20260504173703 20 289 3.2 4.8 0.00 0.00 0.00 40 1011.9
20260504173603 20 286 3.2 4.8 0.00 0.00 0.00 39 1011.9
20260504173504 20 285 3.2 3.2 0.00 0.00 0.00 38 1011.9
20260504173404 20 284 3.2 3.2 0.00 0.00 0.00 37 1011.9
20260504173303 20 283 3.2 4.8 0.00 0.00 0.00 38 1011.9
20260504173203 20 286 1.6 4.8 0.00 0.00 0.00 37 1011.9
20260504173104 20 289 1.6 4.8 0.00 0.00 0.00 38 1011.9
20260504173003 20 292 1.6 4.8 0.00 0.00 0.00 38 1011.9
20260504172903 20 298 1.6 4.8 0.00 0.00 0.00 37 1011.9
20260504172803 20 303 1.6 3.2 0.00 0.00 0.00 36 1011.9
20260504172704 20 309 1.6 3.2 0.00 0.00 0.00 36 1011.9
20260504172603 20 311 1.6 3.2 0.00 0.00 0.00 36 1011.9
20260504172503 21 312 1.6 3.2 0.00 0.00 0.00 37 1011.9
20260504172404 21 306 1.6 6.4 0.00 0.00 0.00 36 1011.9
20260504172304 21 305 1.6 6.4 0.00 0.00 0.00 35 1011.9
20260504172203 21 303 1.6 6.4 0.00 0.00 0.00 35 1011.9
20260504172103 21 304 1.6 6.4 0.00 0.00 0.00 35 1011.9
20260504172004 21 308 1.6 3.2 0.00 0.00 0.00 36 1011.9
20260504171903 21 309 0.0 3.2 0.00 0.00 0.00 35 1011.9
20260504171803 21 320 0.0 3.2 0.00 0.00 0.00 36 1011.9
20260504171703 21 332 1.6 4.8 0.00 0.00 0.00 36 1011.9
20260504171603 21 336 1.6 4.8 0.00 0.00 0.00 36 1011.9
20260504171503 21 335 3.2 4.8 0.00 0.00 0.00 35 1011.9
20260504171403 21 337 3.2 6.4 0.00 0.00 0.00 36 1011.9
20260504171304 21 339 3.2 6.4 0.00 0.00 0.00 36 1011.9
20260504171203 21 340 3.2 6.4 0.00 0.00 0.00 34 1011.9
20260504171103 21 342 3.2 6.4 0.00 0.00 0.00 34 1011.9
20260504171003 21 347 3.2 6.4 0.00 0.00 0.00 35 1011.9
20260504170903 21 349 1.6 6.4 0.00 0.00 0.00 36 1011.9
20260504170803 21 350 3.2 6.4 0.00 0.00 0.00 35 1012.1
20260504170703 21 351 3.2 6.4 0.00 0.00 0.00 36 1012.1
20260504170603 21 352 3.2 6.4 0.00 0.00 0.00 37 1012.1
20260504170504 21 354 3.2 6.4 0.00 0.00 0.00 36 1012.1
20260504170403 21 358 1.6 4.8 0.00 0.00 0.00 37 1011.9
20260504170303 21 0 1.6 4.8 0.00 0.00 0.00 37 1011.9
20260504170203 21 2 1.6 4.8 0.00 0.00 0.00 36 1011.9
20260504170104 21 4 0.0 4.8 0.00 0.00 0.00 37 1011.9
20260504160403 22 358 6.4 12.9 0.00 0.00 0.00 32 1012.1
20260504160303 22 357 6.4 12.9 0.00 0.00 0.00 32 1012.1
20260504160203 22 357 6.4 12.9 0.00 0.00 0.00 32 1012.1
20260504160104 22 358 6.4 12.9 0.00 0.00 0.00 32 1012.1
20260504151104 23 52 0.0 4.8 0.00 0.00 0.00 32 1012.4
20260504151004 23 51 0.0 6.4 0.00 0.00 0.00 32 1012.4
20260504150904 22 55 1.6 6.4 0.00 0.00 0.00 33 1012.4
20260504150803 22 56 3.2 6.4 0.00 0.00 0.00 33 1012.4
20260504150703 22 54 3.2 6.4 0.00 0.00 0.00 32 1012.4
20260504150603 22 51 4.8 9.7 0.00 0.00 0.00 33 1012.4
20260504150503 23 47 4.8 9.7 0.00 0.00 0.00 33 1012.5
20260504150403 23 42 3.2 9.7 0.00 0.00 0.00 33 1012.5
20260504150304 23 36 3.2 9.7 0.00 0.00 0.00 34 1012.5
20260504150203 23 30 3.2 6.4 0.00 0.00 0.00 35 1012.5
20260504150103 23 25 3.2 6.4 0.00 0.00 0.00 35 1012.5